GFSSW_850_spd_057.txt.gz
Wind_Speed
18 18 16 15 15 14 14 13 13 11 11 10 10 10 10 11 11 11 10 11 10 13 11 7 10 12 15 21 24 24 18 22 29 26 20 19 14 13 18 13 12 12 10 8 8
18 19 18 17 16 15 14 14 13 13 11 10 9 8 8 10 11 12 12 13 8 3 4 10 13 13 20 20 26 21 17 29 26 23 23 23 22 17 16 19 21 17 17 14 8
18 18 17 17 17 17 15 14 14 12 11 10 8 6 6 8 12 4 8 4 4 5 3 7 10 14 20 24 26 25 24 24 28 33 35 23 21 18 24 17 21 22 20 12 13
18 17 17 16 17 16 16 14 14 12 10 9 7 5 4 5 3 4 7 6 4 2 4 5 9 15 18 20 25 25 27 26 30 31 19 18 23 21 27 18 16 18 18 16 17
18 17 17 16 16 16 15 15 13 11 9 7 6 4 4 8 10 5 8 6 3 2 6 7 9 13 17 17 21 22 22 25 21 24 21 17 21 24 27 17 15 16 22 23 18
21 19 18 17 15 15 13 13 11 9 7 5 4 4 5 15 3 5 8 7 5 5 7 7 7 7 13 12 16 14 17 25 21 21 23 21 25 28 30 26 27 20 22 22 18
21 23 20 15 14 11 11 10 7 6 5 3 4 4 10 12 6 9 10 8 7 7 7 6 6 9 6 10 15 15 15 16 20 20 20 21 25 27 29 29 28 23 24 24 25
23 22 18 13 9 7 6 5 6 5 4 3 3 4 9 5 8 10 9 8 7 7 8 7 9 13 13 12 8 15 17 17 19 23 23 21 25 21 32 32 19 23 25 18 23
22 19 16 10 5 2 3 4 5 3 1 2 1 6 9 6 11 11 10 7 7 7 8 8 9 14 12 12 14 17 15 20 18 6 10 17 19 17 13 10 15 18 15 16 18
21 17 13 5 2 3 3 2 3 2 1 1 6 7 8 11 12 8 10 8 9 9 10 11 11 12 13 14 14 14 20 18 9 13 12 16 20 18 12 17 17 19 19 19 15
19 14 9 4 4 4 2 5 2 4 9 11 4 9 3 5 8 11 11 10 11 11 14 16 13 14 17 16 13 12 16 12 7 11 5 14 19 19 20 23 20 22 21 21 21
15 11 7 5 5 6 7 5 4 5 9 7 8 11 7 5 11 12 10 13 15 13 12 10 13 17 8 7 9 14 15 15 14 10 10 16 20 21 21 19 25 24 25 23 19
13 10 4 5 4 5 3 3 6 6 8 6 4 8 10 12 12 11 15 16 13 14 11 14 12 8 7 11 13 15 15 15 13 9 11 19 23 26 27 30 31 27 25 23 21
12 6 5 5 3 1 1 7 8 6 6 12 10 8 9 11 12 12 12 17 11 15 15 11 13 5 10 12 10 14 11 10 11 11 12 3 12 7 7 11 11 12 12 13 13
11 5 2 2 2 6 7 9 6 4 5 5 7 5 8 15 5 14 10 14 15 16 9 15 14 11 15 13 9 12 10 9 14 15 16 19 11 14 17 11 12 10 6 6 8
9 3 2 7 5 6 9 6 2 7 3 6 5 8 13 15 14 8 10 14 15 14 17 18 22 13 14 14 10 11 13 15 17 16 16 20 17 14 11 11 11 10 7 7 8
9 7 6 4 8 10 6 5 7 7 4 3 6 7 13 12 15 15 16 16 14 15 17 20 23 22 19 17 17 12 13 12 15 14 15 9 5 11 2 5 2 3 6 7 9
12 10 9 6 8 9 5 9 9 3 7 3 7 13 14 14 16 15 17 14 17 21 16 18 18 19 16 17 17 16 16 13 17 13 11 14 7 3 6 9 2 7 9 9 9
15 9 7 7 7 6 10 9 11 9 5 8 12 14 16 16 9 14 14 16 18 15 12 13 17 6 13 12 14 18 15 13 16 19 15 18 21 12 13 11 8 9 4 6 9
9 6 9 7 7 6 10 13 11 0 7 10 13 11 14 14 10 15 12 4 6 6 10 15 17 16 13 15 18 17 12 6 9 16 19 17 20 14 15 17 11 4 4 7 6
7 8 3 5 6 11 9 12 8 8 8 7 12 16 18 18 17 18 16 14 5 11 8 10 14 18 12 16 19 15 17 18 16 11 6 12 9 10 7 1 3 1 6 7 10
6 5 1 4 11 7 8 6 5 12 12 12 12 15 15 15 16 17 18 10 7 11 9 7 7 13 19 17 20 18 17 18 12 20 16 16 18 13 2 6 4 6 12 17 17
12 10 3 4 5 8 12 11 11 10 11 7 10 12 14 14 16 16 12 10 4 10 7 7 5 8 14 18 19 11 16 14 18 15 19 15 15 5 6 7 13 19 25 23 18
9 4 2 4 2 7 11 13 6 4 10 8 11 15 14 16 15 9 16 0 10 13 8 6 12 17 15 20 3 5 14 12 15 11 16 20 24 22 21 19 21 26 28 28 23
5 4 3 6 8 11 12 13 12 7 4 13 7 11 10 13 15 16 12 10 10 11 9 10 18 18 21 24 20 20 22 20 19 19 20 24 27 24 23 24 28 32 23 22 20
8 7 8 19 12 11 8 9 8 8 10 12 13 13 12 14 15 17 17 15 11 13 15 10 8 15 23 22 22 25 22 21 22 23 24 27 28 25 29 27 25 26 23 21 21
9 7 8 12 9 9 6 8 11 13 8 6 9 11 13 13 16 17 17 18 14 13 12 10 6 8 13 12 19 20 20 20 24 23 21 23 22 22 19 21 23 25 23 23 25

GFSSW_850_spd_060.txt.gz
Wind_Speed
18 19 18 16 16 16 16 15 15 15 14 12 12 11 11 12 12 11 18 10 9 14 15 14 12 15 17 21 25 26 16 18 27 28 23 26 16 25 24 17 18 8 12 14 7
18 19 18 17 15 15 15 15 15 15 14 12 11 10 10 13 16 19 15 18 16 16 11 8 12 15 20 24 27 20 16 27 25 24 25 32 27 18 22 19 22 22 16 13 13
18 18 18 17 16 15 14 15 15 14 13 11 9 9 10 12 15 9 17 14 12 8 5 9 12 17 21 24 26 27 23 24 28 31 34 32 31 19 12 16 20 25 23 15 13
19 18 18 18 18 16 15 13 14 14 11 9 8 8 8 9 5 6 4 7 6 6 8 10 12 16 17 19 26 24 30 31 28 32 32 25 32 32 16 13 23 26 18 14 8
22 20 20 19 18 17 14 11 11 11 9 6 7 7 6 8 18 5 3 6 5 4 9 11 13 16 16 18 24 24 23 30 32 31 29 32 25 22 23 21 15 20 17 18 18
22 23 21 19 17 15 12 9 8 7 5 4 5 5 6 14 1 5 5 7 7 8 10 11 11 11 14 16 17 22 24 25 26 25 25 20 24 25 26 22 25 23 18 18 19
23 23 21 17 14 10 9 6 4 3 3 3 5 5 10 19 4 7 8 10 8 9 10 9 11 10 12 13 18 19 18 19 16 22 26 21 24 26 28 27 30 31 29 26 21
24 22 20 15 9 6 4 4 4 3 3 4 5 5 10 4 14 11 11 10 10 10 11 11 9 14 18 18 21 11 15 17 21 22 26 19 24 21 27 29 32 33 30 24 20
22 20 17 10 5 3 2 3 4 3 1 4 5 6 13 8 10 13 12 11 12 9 9 10 10 16 16 15 14 14 15 21 23 23 22 26 25 21 25 27 27 20 28 16 22
21 18 14 7 4 4 2 3 5 1 4 5 8 9 13 12 7 12 11 11 9 11 12 13 13 12 13 13 14 17 22 19 19 22 8 11 17 18 21 22 10 14 16 19 16
20 16 11 4 4 5 4 8 5 4 11 15 9 13 7 2 5 8 10 10 12 14 13 16 12 13 18 18 19 20 21 17 19 14 16 15 14 16 18 22 19 21 22 21 20
20 15 9 2 3 4 6 5 7 9 14 19 19 15 15 6 10 12 13 14 15 13 15 15 16 16 16 19 14 14 14 18 21 17 15 12 16 17 19 21 25 21 22 22 21
19 14 6 3 3 3 6 8 10 11 9 17 11 12 12 14 14 13 15 15 16 16 15 17 15 9 8 11 12 13 16 17 19 17 14 9 17 20 26 30 31 29 24 23 22
16 11 4 5 7 7 6 9 11 9 5 11 8 7 10 9 16 15 12 17 16 18 17 15 18 16 8 15 14 17 16 17 15 16 12 13 17 17 15 13 24 27 31 29 24
14 9 6 6 10 10 10 12 10 5 5 9 10 7 7 13 6 11 11 12 16 18 17 16 15 14 13 16 17 16 12 15 11 14 15 20 13 17 19 20 15 12 10 9 8
19 10 8 8 12 7 13 10 7 6 5 6 5 6 10 15 16 10 11 13 16 17 18 20 25 18 20 11 17 13 12 14 16 13 16 21 19 18 17 17 15 17 15 9 11
22 15 12 10 8 12 12 8 6 7 4 0 1 5 10 13 16 18 17 18 14 16 16 20 21 20 21 21 17 15 17 12 14 13 16 22 21 17 14 4 11 17 16 11 8
24 18 12 12 9 11 9 9 9 13 11 12 7 12 15 17 17 17 18 18 16 16 15 13 18 23 7 11 21 16 15 10 11 14 17 15 9 12 8 13 11 8 4 3 6
23 9 5 6 5 7 10 8 12 10 12 11 15 17 16 17 16 16 16 17 15 20 12 9 12 15 7 10 18 20 15 16 10 14 15 16 17 22 11 7 9 12 11 5 7
22 8 10 10 5 6 9 15 20 18 7 11 14 13 16 18 20 19 11 10 8 17 15 15 16 15 18 2 16 17 15 9 4 13 17 15 18 13 11 18 12 9 7 10 8
16 8 5 4 5 10 9 14 16 16 13 7 14 17 17 18 17 19 21 15 18 13 21 14 13 17 13 17 14 11 15 13 10 7 2 8 8 8 5 11 7 8 4 5 7
10 7 3 3 10 12 11 10 9 16 10 14 14 16 17 16 17 20 21 7 5 10 8 7 3 14 15 19 23 20 13 16 7 14 14 15 16 13 2 4 13 14 11 11 13
14 18 6 3 5 10 17 15 20 14 11 9 14 17 17 17 17 18 17 14 10 12 1 3 4 9 10 11 7 8 11 16 17 13 17 13 17 9 14 13 13 19 27 24 18
9 6 8 13 14 8 13 16 14 17 11 10 10 16 15 15 13 15 17 2 6 12 3 6 10 14 14 16 5 7 18 18 9 5 13 18 24 20 17 9 16 23 33 28 33
7 8 7 7 13 16 13 15 16 12 10 12 14 15 15 15 15 16 16 16 6 7 3 3 9 17 18 20 19 14 18 18 18 16 18 18 22 20 19 18 20 18 14 15 19
9 9 14 23 16 14 11 14 13 11 14 16 14 13 13 13 13 16 15 13 14 3 8 7 4 12 18 19 20 22 22 20 23 27 26 23 29 20 19 22 23 21 18 19 16
14 12 11 12 16 13 10 11 14 16 13 12 11 13 14 13 14 17 18 16 13 12 12 11 9 9 13 16 17 14 18 18 20 19 20 21 15 17 18 15 18 24 24 13 25

GFSSW_850_spd_063.txt.gz
Wind_Speed
18 19 19 19 18 17 17 15 13 13 13 13 12 12 13 14 14 16 20 8 7 6 8 12 14 12 11 16 19 21 9 12 15 18 16 34 8 18 20 14 20 12 9 12 9
19 19 19 19 19 17 17 16 14 12 12 11 11 12 13 15 19 22 14 11 11 15 15 12 7 7 18 14 17 10 10 16 9 10 15 28 22 18 6 8 14 14 21 3 3
20 20 20 20 19 19 16 16 15 12 10 9 8 10 11 14 17 7 3 5 8 13 11 9 13 14 20 23 24 19 16 11 15 28 35 32 31 32 11 8 14 19 18 11 6
22 22 22 22 21 19 17 14 13 12 9 7 7 7 9 9 2 5 3 3 8 7 11 5 10 16 7 8 24 12 22 25 26 33 30 16 27 21 19 22 41 31 22 7 4
25 24 23 22 20 17 14 12 10 11 7 6 5 6 6 6 13 4 3 2 4 6 4 9 17 18 8 10 20 11 13 27 30 34 34 31 23 18 17 11 26 15 14 16 12
26 25 23 21 18 12 11 8 8 7 6 5 4 5 6 7 6 6 6 7 6 5 6 12 14 16 10 10 5 14 19 19 29 27 26 14 20 17 17 16 8 10 15 21 20
25 24 23 20 14 9 7 6 5 5 4 5 4 5 9 20 2 5 4 7 3 7 14 14 15 9 15 10 16 20 9 10 12 9 5 12 12 18 17 20 21 15 16 19 19
25 23 22 17 11 6 5 4 4 4 3 4 5 5 10 1 7 14 12 7 10 11 11 15 12 11 13 17 18 8 8 6 7 8 13 6 19 14 20 23 25 20 21 25 22
25 21 19 14 8 6 4 4 5 5 2 3 4 6 11 6 11 11 13 15 12 13 8 10 10 9 15 6 7 5 9 9 11 14 14 13 24 13 22 24 21 21 19 27 33
26 21 17 11 8 8 6 5 9 4 5 6 6 7 9 10 11 9 12 13 13 7 11 13 12 5 4 3 7 8 8 11 16 16 13 23 23 20 24 25 16 17 14 4 7
26 22 16 8 8 8 9 9 9 1 9 11 7 11 15 2 5 6 10 10 9 12 6 16 4 7 13 14 16 16 17 18 12 12 13 8 8 5 6 6 9 17 16 12 14
25 21 13 7 6 6 10 8 12 13 16 17 26 26 25 16 8 13 10 14 11 8 10 7 9 15 18 16 15 14 12 8 8 14 11 10 8 6 6 6 12 16 19 24 24
26 19 12 9 8 9 11 9 15 17 6 20 21 22 20 12 15 17 17 18 9 9 11 10 12 16 15 10 9 8 5 5 12 15 15 8 7 4 5 11 25 33 30 23 32
26 18 14 11 11 14 17 13 13 16 3 6 9 6 9 9 8 18 17 16 9 12 13 9 10 16 14 14 4 8 9 14 16 10 6 4 6 7 5 11 13 28 36 33 23
27 22 12 12 13 7 12 17 14 6 4 7 7 12 8 12 9 18 16 14 9 11 10 13 12 13 11 13 7 11 9 12 5 6 6 9 5 7 6 15 18 11 27 36 34
30 26 18 10 12 9 18 18 10 1 5 4 9 9 8 17 17 15 14 17 15 8 11 13 21 11 14 15 13 8 3 8 7 2 5 6 6 19 14 17 19 10 22 21 21
34 29 21 14 13 4 14 12 2 3 7 3 2 1 5 8 10 14 14 11 10 7 8 14 17 13 8 13 11 8 2 3 3 5 12 5 10 21 11 16 23 14 25 22 17
35 27 13 7 5 4 10 3 4 8 7 9 9 13 11 12 12 14 11 10 10 5 6 5 12 10 4 5 1 19 2 3 6 4 8 10 6 7 7 14 18 19 22 22 21
35 21 5 3 6 3 5 2 4 6 17 11 12 8 8 17 11 14 11 5 9 11 5 2 6 15 9 9 13 10 5 9 9 9 2 4 10 15 18 7 7 11 15 14 15
37 19 9 4 6 4 2 5 5 12 13 10 7 7 12 14 14 12 7 4 6 5 7 2 9 10 12 5 2 6 6 5 1 4 5 6 11 7 9 5 5 5 10 14 9
29 12 9 4 6 4 3 5 14 23 13 2 8 11 10 11 11 11 10 14 9 6 3 3 3 7 11 5 10 7 4 3 7 4 4 3 5 5 5 9 10 8 11 5 10
16 4 6 3 2 5 3 10 16 19 20 8 2 6 7 11 7 12 13 4 6 6 4 4 1 3 6 11 6 4 7 4 1 4 5 4 10 3 4 9 13 18 15 15 15
28 8 4 5 2 5 9 12 16 14 13 8 3 7 8 9 7 7 10 11 5 4 5 5 4 4 7 5 3 4 3 4 4 6 7 3 4 3 3 6 7 8 17 18 33
10 4 9 14 11 7 10 12 12 19 16 6 5 10 9 7 7 7 8 8 2 6 16 6 3 5 4 8 3 2 6 9 5 3 3 9 11 16 16 8 9 20 24 28 19
6 4 12 4 10 16 15 9 14 15 11 16 7 10 9 6 7 7 9 9 13 9 3 2 3 5 9 12 13 13 13 13 14 14 9 15 15 11 5 2 7 11 21 7 16
9 7 10 15 16 15 11 8 14 11 9 9 6 8 6 5 7 7 6 6 4 4 2 3 3 5 7 11 14 16 16 17 17 19 17 9 13 12 15 18 9 12 7 12 13
9 11 6 7 8 10 8 19 16 12 6 15 11 6 7 7 13 15 16 15 10 6 4 3 2 5 4 8 15 8 7 4 7 7 7 3 5 5 5 8 12 18 19 18 19

GFSSW_850_spd_069.txt.gz
Wind_Speed
18 18 19 18 18 17 15 15 15 14 12 12 14 15 15 14 14 16 20 8 5 15 12 8 6 5 9 7 9 7 2 5 8 8 14 15 4 14 19 18 19 13 14 21 24
19 19 19 20 18 16 15 14 14 14 13 11 12 13 13 15 16 16 8 7 9 10 9 5 5 6 6 6 6 6 4 8 4 8 10 14 8 11 12 22 21 31 8 21 17
21 19 19 18 18 16 13 12 12 12 12 11 11 10 10 13 14 2 6 4 14 11 9 5 3 4 5 6 7 6 9 4 5 11 17 20 20 20 8 11 24 28 15 14 12
23 21 19 19 17 14 11 10 10 9 10 11 9 7 8 8 1 1 4 5 7 8 8 3 5 3 3 5 10 5 6 9 16 24 24 13 23 18 14 25 26 29 25 20 23
26 23 21 20 16 12 9 8 8 8 8 8 7 7 6 5 8 5 1 1 3 6 7 9 6 3 3 3 2 5 6 20 26 28 27 28 21 17 31 34 34 32 37 19 22
26 25 22 20 15 11 9 7 6 7 7 7 6 6 6 4 3 4 5 4 5 6 8 8 2 7 6 4 5 2 6 11 11 15 19 10 16 12 31 27 29 29 28 16 23
27 25 23 19 14 11 9 7 7 7 7 6 6 7 10 15 3 6 5 1 4 5 6 5 6 3 4 6 5 5 5 7 4 6 4 9 7 15 15 17 22 20 20 15 23
29 26 23 17 13 12 9 7 7 8 7 5 6 7 8 3 10 10 8 6 5 5 9 8 11 9 2 6 9 6 3 4 4 1 6 4 14 13 11 13 15 21 22 23 21
30 27 22 16 12 11 10 10 10 10 7 5 6 6 9 4 9 9 12 8 6 7 9 11 13 5 2 3 5 5 5 5 7 4 4 6 9 7 15 12 21 25 28 28 29
33 30 21 17 13 9 12 14 11 8 6 6 7 7 6 1 11 8 8 9 10 8 5 6 3 2 3 5 3 5 5 6 5 4 1 10 17 9 18 17 25 21 31 32 29
33 32 25 17 14 10 9 11 9 3 8 14 14 16 24 10 6 6 12 11 9 5 2 2 2 5 10 8 8 5 5 10 13 15 4 12 13 9 15 18 22 24 25 31 35
33 33 27 20 15 11 11 9 11 12 13 21 22 28 24 20 7 11 11 9 5 5 2 4 7 9 6 7 8 8 12 15 11 14 6 10 14 9 7 10 17 23 19 25 23
34 34 30 27 16 13 9 6 13 11 4 11 7 12 13 13 12 14 16 15 5 4 5 7 10 2 5 7 7 10 7 12 12 6 5 2 9 6 4 7 14 13 9 11 16
34 35 33 32 11 7 7 8 10 9 3 5 4 4 8 9 5 15 22 14 4 10 6 6 9 9 6 6 5 6 9 9 9 4 7 3 11 5 5 8 6 17 24 24 19
34 35 33 31 12 12 5 6 8 1 3 3 3 1 6 10 1 4 19 22 9 8 6 10 3 3 6 5 4 7 7 7 9 5 1 2 1 8 2 6 9 9 24 24 30
36 29 31 25 13 4 4 7 2 4 5 1 5 5 4 6 2 0 8 19 13 5 4 7 2 1 3 5 3 8 6 5 5 2 3 7 7 14 9 7 5 5 18 28 36
36 25 23 14 1 4 3 3 4 3 5 5 3 1 5 2 0 2 4 6 10 4 2 3 3 3 1 2 4 9 6 5 4 3 13 8 4 17 4 6 8 9 19 28 35
36 25 15 3 5 3 1 3 3 3 4 7 3 5 3 1 1 2 4 5 5 3 3 3 5 2 2 3 5 3 4 3 7 5 7 4 8 18 4 8 14 4 24 22 29
35 20 6 5 6 1 2 2 4 2 8 6 9 2 1 1 2 6 2 1 3 3 3 3 4 4 6 4 5 4 5 3 4 5 4 5 8 13 13 7 4 11 22 28 23
37 20 9 7 4 2 4 3 3 3 9 4 4 2 2 2 2 3 2 1 5 4 2 4 3 4 3 5 4 1 3 0 2 4 5 4 5 7 11 8 8 1 15 19 25
22 9 7 8 3 4 1 4 5 13 9 3 4 2 1 1 1 3 4 2 0 3 4 3 3 4 3 2 3 2 2 1 2 3 3 3 5 3 5 6 13 7 8 8 10
15 4 5 7 3 2 1 6 14 7 11 5 3 1 1 1 2 3 2 1 2 6 4 1 4 3 8 6 5 4 5 5 3 3 3 4 5 4 7 7 15 23 19 17 11
22 7 10 3 1 3 5 7 10 14 10 5 4 3 2 2 2 2 1 3 1 3 6 6 1 2 8 6 4 0 3 4 1 2 5 2 5 0 3 10 10 14 25 22 22
9 4 6 9 7 3 4 4 4 17 6 8 4 2 3 1 2 2 2 0 5 4 5 8 3 6 6 7 4 5 6 6 6 3 4 9 10 12 8 6 9 16 23 22 18
4 2 4 4 3 5 2 5 11 5 7 10 4 2 1 2 3 4 2 2 3 2 3 4 5 5 7 9 9 12 13 12 9 15 10 17 10 2 5 6 7 15 21 23 25
5 5 8 10 12 5 3 2 4 5 4 8 6 10 6 5 7 7 5 4 5 1 3 1 3 3 4 11 9 9 13 12 11 13 13 13 11 1 7 13 13 18 22 24 28
3 4 4 6 5 4 3 1 3 8 6 13 14 13 10 10 13 17 14 8 6 6 5 4 3 2 4 4 7 5 3 3 4 7 5 3 3 4 6 9 16 21 25 29 34

GFSSW_850_spd_072.txt.gz
Wind_Speed
20 20 20 19 18 16 15 15 14 14 13 14 14 13 11 12 13 15 18 8 6 15 11 9 7 7 10 8 8 6 3 4 7 7 10 2 4 7 12 12 13 16 20 25 16
22 20 20 20 19 18 15 13 13 13 13 12 13 14 12 10 13 14 3 6 8 12 13 8 4 6 6 6 7 4 4 7 6 5 6 7 8 13 7 20 14 26 22 20 13
25 22 21 22 20 17 14 12 11 11 11 11 11 11 11 10 8 3 5 1 12 11 9 8 5 6 4 4 6 4 4 4 3 7 12 5 8 17 5 18 13 19 24 17 12
27 25 22 21 20 16 14 11 9 9 10 10 9 9 8 6 2 3 4 5 13 11 10 7 8 6 4 4 6 1 6 7 11 19 20 10 21 15 19 29 30 26 27 29 18
29 28 25 21 18 16 13 12 10 9 8 9 8 7 6 5 4 3 2 3 6 8 8 9 9 4 2 2 2 4 5 13 16 17 19 25 14 17 32 25 31 31 30 28 26
31 30 26 21 16 15 14 12 10 9 8 7 7 8 5 3 1 4 6 4 4 8 12 9 4 1 2 2 4 2 4 8 7 11 8 7 11 12 10 13 23 26 26 27 26
31 30 26 21 16 14 12 11 11 11 10 8 7 7 10 10 3 6 7 4 4 6 8 5 1 2 1 3 2 3 3 7 4 6 5 4 10 9 17 12 19 25 24 24 19
30 31 25 21 16 14 12 12 13 13 12 9 7 8 8 4 7 10 9 6 6 6 5 5 4 7 3 3 6 4 4 3 5 4 7 6 14 8 11 14 17 21 23 21 18
29 30 27 23 17 13 13 15 14 14 12 8 7 6 7 1 2 10 10 8 6 4 5 9 6 3 1 4 5 5 2 2 7 6 5 5 6 6 25 16 20 22 25 25 29
29 29 28 25 21 14 11 16 11 11 8 7 8 5 5 3 5 4 12 11 8 4 2 2 4 3 3 4 3 4 3 3 4 5 4 10 15 9 24 17 20 21 23 27 30
32 30 28 27 25 16 11 11 6 4 7 10 15 20 20 8 4 3 8 13 10 3 3 2 1 5 8 7 6 3 3 5 9 14 5 9 14 12 19 21 21 25 21 23 27
34 32 30 29 29 16 12 6 2 8 11 19 21 26 25 17 7 7 5 9 6 6 4 4 7 8 5 4 4 5 5 8 7 11 6 8 13 10 7 10 24 22 18 15 20
34 34 32 28 29 15 10 4 6 11 4 10 7 8 11 16 10 13 10 12 4 5 6 6 7 4 5 3 4 4 4 5 7 7 4 5 13 6 6 10 20 19 17 12 12
33 35 32 28 17 10 6 5 6 7 4 5 3 3 10 7 5 17 17 11 2 9 7 5 4 3 3 5 5 4 5 6 6 4 5 2 18 9 4 10 9 23 23 19 18
34 36 30 23 21 11 5 3 7 2 3 2 2 4 10 7 2 2 15 19 7 5 5 7 2 2 3 5 3 7 3 4 5 7 4 2 5 2 2 7 9 9 22 26 22
36 35 27 21 14 2 6 3 3 3 4 2 4 4 5 3 1 2 4 9 5 5 2 7 1 3 4 0 3 1 2 3 2 2 9 8 8 20 17 7 5 7 13 17 22
38 33 19 17 0 6 2 1 2 2 5 4 3 2 2 2 3 2 3 3 6 3 5 2 3 1 1 0 1 4 5 4 4 1 9 4 5 16 9 5 8 8 12 10 12
38 24 12 2 4 2 1 3 2 3 5 4 4 6 3 1 2 3 3 2 2 3 2 4 5 4 4 4 2 1 5 4 6 6 14 6 7 15 2 3 10 14 5 6 9
33 14 8 5 6 2 1 2 3 1 5 7 9 3 2 0 2 0 1 3 3 3 4 4 4 4 3 2 4 0 3 2 3 7 6 5 9 13 5 9 13 3 5 13 16
26 7 15 6 4 3 4 2 2 3 8 5 3 2 4 1 1 2 1 1 1 4 3 2 2 2 3 2 4 3 4 1 1 4 6 4 4 7 9 8 10 10 11 13 9
13 4 13 5 2 2 2 1 3 14 18 4 4 4 1 3 3 3 3 1 2 2 4 3 3 3 1 4 6 1 1 2 1 3 4 4 3 5 5 5 7 8 14 15 17
12 2 12 2 2 2 1 4 8 10 24 6 3 2 1 3 3 4 4 2 1 5 4 2 4 4 8 4 6 4 6 5 4 6 4 3 8 7 2 8 8 17 22 28 26
15 7 9 4 2 2 5 4 2 3 5 6 4 4 3 1 2 1 1 1 4 4 6 5 1 2 7 4 3 2 4 4 2 2 6 3 8 2 5 9 13 15 27 30 31
9 4 6 10 7 4 4 4 5 7 8 9 6 3 3 2 1 2 2 2 2 2 3 8 4 6 6 6 4 4 4 5 6 2 7 13 20 21 13 6 9 17 24 30 33
9 2 3 4 3 6 4 3 10 6 3 6 8 8 7 4 4 4 3 3 3 1 3 4 3 4 5 8 6 10 11 9 8 13 9 20 16 17 5 5 8 17 23 26 33
5 5 5 7 8 5 2 2 10 3 2 3 6 13 9 4 8 8 5 3 6 1 2 2 2 1 4 10 8 12 11 9 10 4 7 9 11 8 5 10 11 17 22 28 32
1 2 3 4 5 4 2 3 5 10 6 12 9 10 10 12 15 20 18 8 4 6 5 3 4 2 4 3 7 6 4 4 5 6 9 6 4 6 6 9 14 25 28 31 34

GFSSW_850_spd_075.txt.gz
Wind_Speed
24 22 20 18 17 16 16 14 14 12 12 11 13 11 12 14 14 16 16 7 4 14 8 11 10 14 14 11 7 7 5 11 14 11 8 3 3 9 8 15 12 9 14 17 21
25 24 22 21 19 16 14 13 12 10 11 10 10 10 10 12 14 12 3 5 7 11 15 9 11 14 8 8 7 7 6 9 4 5 6 6 7 14 11 17 19 22 17 14 17
26 26 23 21 19 16 13 12 11 9 9 9 8 9 8 9 7 2 5 2 9 15 13 9 10 10 5 5 6 5 8 4 3 6 8 5 7 11 15 18 19 21 21 19 17
28 27 24 21 18 16 14 12 11 10 9 8 8 6 7 4 2 0 3 4 12 14 15 12 10 7 4 7 6 4 5 10 10 16 19 17 19 22 25 27 21 24 26 26 25
30 28 24 21 18 16 15 12 11 10 9 9 7 5 4 4 6 4 4 6 10 10 11 10 11 6 5 4 6 5 3 6 11 13 15 18 19 21 26 21 24 25 26 26 26
30 30 27 23 19 16 14 12 11 10 10 10 9 6 4 5 4 5 7 7 6 9 11 12 6 4 5 4 4 6 3 4 4 8 9 10 16 10 7 11 19 18 21 23 24
27 28 28 26 21 17 15 13 12 13 12 11 9 8 10 10 5 5 9 7 6 10 14 8 5 3 4 4 3 0 3 4 7 6 6 7 15 9 15 13 17 19 19 21 24
27 27 27 26 25 20 16 15 16 15 13 11 9 9 7 4 7 8 10 8 9 10 8 7 2 0 1 5 3 1 1 3 2 5 5 5 20 8 7 12 16 18 18 20 16
29 30 28 27 25 25 16 16 17 13 11 9 8 6 6 1 2 9 10 7 8 7 5 5 3 2 3 3 1 2 3 1 5 5 6 6 13 7 20 23 16 18 20 22 23
30 30 32 28 26 25 18 13 16 15 8 6 9 4 3 3 4 3 11 11 6 5 5 4 3 3 3 4 4 2 2 3 7 3 8 17 19 18 20 20 18 16 18 21 23
30 30 33 32 28 25 18 9 7 5 6 9 10 12 16 8 2 6 8 14 6 2 5 2 5 8 8 7 3 3 4 7 11 12 6 13 16 16 21 20 17 17 16 20 22
30 33 32 34 29 24 12 5 4 7 11 20 20 22 22 10 4 6 8 8 6 6 3 3 10 10 6 5 6 6 7 9 9 10 5 13 19 14 15 17 21 21 21 18 20
31 33 34 34 26 11 8 4 3 9 5 7 5 5 7 15 7 8 13 9 5 7 7 9 2 7 8 7 7 8 7 9 10 9 10 14 20 12 10 13 19 23 23 20 18
32 32 34 34 14 11 6 7 3 6 3 4 2 3 9 7 4 15 16 9 4 8 7 7 5 6 5 6 7 7 7 7 7 9 12 8 17 18 15 20 18 20 21 23 21
32 32 33 26 17 8 4 3 3 0 1 2 3 4 8 6 2 2 15 11 10 7 5 2 4 5 4 3 8 7 3 7 9 13 15 16 14 14 7 14 15 15 22 24 24
34 32 29 15 10 2 8 1 4 2 2 2 4 3 3 3 1 4 3 5 2 7 7 10 2 3 2 3 4 2 4 10 6 7 12 17 16 8 12 16 15 16 21 22 17
37 27 15 8 4 9 4 4 1 3 6 4 4 4 2 2 2 2 4 6 6 4 9 8 9 4 5 8 3 1 5 8 7 7 11 7 13 14 20 15 19 21 25 16 11
35 13 7 5 7 3 4 2 2 2 4 7 7 7 5 5 3 3 2 3 1 4 7 5 6 4 3 1 2 2 3 5 12 14 19 16 10 8 15 12 18 17 7 7 9
24 9 9 5 8 4 2 1 1 2 5 8 9 3 8 4 6 5 4 4 1 4 5 4 3 1 2 3 2 4 4 1 7 14 12 8 16 18 7 13 19 18 18 17 13
19 4 15 6 4 3 3 1 1 8 7 4 2 1 3 5 8 7 6 2 3 0 2 2 4 1 2 3 7 2 5 3 2 5 9 9 17 11 7 11 13 18 20 18 21
12 3 13 2 2 3 1 0 3 4 10 8 5 6 6 6 3 3 2 0 1 3 2 4 3 1 1 5 8 3 4 2 1 3 5 8 7 3 9 12 14 12 16 17 17
11 1 13 0 1 2 1 4 6 8 9 5 9 7 8 4 6 6 10 1 5 2 1 2 2 5 10 1 4 5 8 9 5 5 5 3 15 12 13 5 9 12 11 13 17
13 6 10 2 2 3 5 4 4 4 2 2 6 6 4 3 5 1 3 3 1 2 3 5 2 4 3 3 3 5 8 10 5 1 12 10 10 1 6 16 28 20 14 12 15
8 4 7 11 8 5 6 3 3 9 6 4 6 5 4 4 2 4 4 4 2 2 2 8 5 11 10 10 2 6 9 11 11 8 14 18 29 23 21 22 22 20 18 21 24
9 3 4 4 4 7 3 4 8 4 3 5 4 6 6 3 5 5 10 5 3 1 4 4 7 7 11 12 12 15 17 16 17 18 16 23 23 23 21 17 14 18 21 24 27
3 3 3 4 7 7 3 2 9 5 2 1 5 7 7 6 7 13 16 14 9 3 4 2 3 3 10 12 13 14 16 16 17 18 20 19 21 17 14 23 25 25 27 31 32
2 2 2 1 3 4 3 5 8 11 6 6 6 8 9 11 10 22 21 18 12 5 6 3 3 2 4 4 11 13 4 3 5 7 9 15 20 14 20 18 24 30 33 38 39